This demonstration page uses our WeatherBlox Daily Observations layout. Learn more.

Left ArrowRight Arrow

40.97296, -117.73568

Hourly Observations for August 31, 2016

Temp ( °F °C ) Dew Point ( °F °C ) Humidity (%) Winds ( mph kmh ) Pressure ( in mb ) Visibility ( mi km ) Precip ( " mm )
12:56 am 00:56 Clear 63 17.2 26 -3.3 25 25 ENE 3 6 29.86 1011 10 16 0.00 0.00
1:56 am 01:56 Clear 59 15 23 -5 25 25 E 3 6 29.86 1011 10 16 0.00 0.00
2:56 am 02:56 Clear 57 13.9 25 -3.9 29 29 SE 8 13 29.86 1011 10 16 0.00 0.00
3:56 am 03:56 Clear 57 13.9 25 -3.9 29 29 SE 6 9 29.87 1011 10 16 0.00 0.00
4:56 am 04:56 Clear 57 13.9 25 -3.9 29 29 ESE 6 9 29.87 1012 10 16 0.00 0.00
5:56 am 05:56 Clear 56 13.3 26 -3.3 32 32 S 6 9 29.87 1012 10 16 0.00 0.00
6:56 am 06:56 Sunny 57 13.9 25 -3.9 29 29 SE 7 11 29.88 1012 10 16 0.00 0.00
7:56 am 07:56 Sunny 65 18.3 30 -1.1 27 27 ESE 3 6 29.88 1012 10 16 0.00 0.00
8:56 am 08:56 Sunny 73 22.8 29 -1.7 19 19 E 6 9 29.88 1012 10 16 0.00 0.00
9:56 am 09:56 Sunny 82 27.8 30 -1.1 15 15 ESE 6 9 29.86 1011 10 16 0.00 0.00
10:56 am 10:56 Sunny 86 30 28 -2.2 12 12 NE 6 9 29.84 1011 10 16 0.00 0.00
11:56 am 11:56 Sunny 88 31.1 25 -3.9 10 10 SSE 10 17 29.83 1010 10 16 0.00 0.00
12:56 pm 12:56 Sunny 92 33.3 26 -3.3 9 9 VRB 7 11 29.80 1009 10 16 0.00 0.00
1:56 pm 13:56 Sunny 93 33.9 25 -3.9 8 8 WSW 10 17 29.79 1009 10 16 0.00 0.00
2:56 pm 14:56 Sunny 91 32.8 28 -2.2 10 10 SW 26 43 29.79 1009 10 16 0.00 0.00
3:56 pm 15:56 Sunny 92 33.3 28 -2.2 10 10 WSW 21 33 29.78 1008 10 16 0.00 0.00
5:56 pm 17:56 Sunny 90 32.2 29 -1.7 11 11 WSW 15 24 29.75 1008 10 16 0.00 0.00
6:40 pm 18:40 Sunny with Nearby Thunderstorms 89 31.7 28 -2.2 11 11 WSW 10 17 29.53 1000 10 16 0.00 0.00
6:56 pm 18:56 Sunny with Nearby Thunderstorms 86 30 32 0 14 14 S 25 41 29.80 1009 9 14 0.00 0.00
7:04 pm 19:04 Partly Cloudy with Nearby Thunderstorms 86 30 30 -1 13 13 SSE 13 20 29.59 1002 10 16 0.00 0.00
7:20 pm 19:20 Mostly Cloudy 82 28 36 2 19 19 undefined N/A 29.62 1003 10 16 0.00 0.00
7:56 pm 19:56 Clear 81 27.2 32 0 17 17 WNW 3 6 29.79 1009 10 16 0.00 0.00
8:56 pm 20:56 Mostly Cloudy 77 25 30 -1.1 18 18 W 8 13 29.82 1010 8 13 0.00 0.00
9:56 pm 21:56 Clear 73 22.8 25 -3.9 17 17 W 3 6 29.83 1010 7 11 0.00 0.00
10:56 pm 22:56 Clear 73 22.8 23 -5 15 15 W 6 9 29.83 1010 10 16 0.00 0.00
11:56 pm 23:56 Clear 71 21.7 23 -5 16 16 Calm 29.85 1011 10 16 0.00 0.00

Powered by AerisWeather